SCP
0 0 0 0 0 0 0 0 0 0 0 0 0 0 0 0 0 0 0 0 0 1 1 0 0 0 0 0 0 0 0 0 0 0 0 0 0 0 0 0 0 0 0
0 0 0 0 0 0 0 0 0 0 0 0 0 0 0 0 0 0 0 0 0 0 1 1 1 1 0 0 0 0 0 0 0 0 0 0 0 0 0 0 0 0 0
-0 -0 0 0 0 0 0 0 0 0 0 0 0 0 0 0 0 0 0 0 0 0 0 0 0 1 0 0 0 0 0 0 0 0 0 0 0 0 0 0 0 0 0
-0 0 0 0 0 0 0 0 0 0 0 0 0 0 0 0 0 0 0 0 0 0 0 0 0 0 0 0 0 0 0 0 0 0 0 0 0 0 0 0 0 0 0
0 0 0 0 0 0 0 0 0 0 0 0 0 0 0 0 0 0 0 0 0 0 0 0 0 0 0 0 0 0 0 0 0 0 0 0 0 0 0 0 0 0 0
0 0 0 0 0 0 0 0 0 0 0 0 0 0 0 -0 0 0 0 0 0 0 0 0 0 0 0 0 0 0 0 0 0 0 0 0 0 0 0 0 0 0 0
0 0 0 0 0 0 0 0 0 0 0 0 0 0 0 0 0 0 0 0 0 0 0 0 0 0 0 0 0 0 0 0 0 0 0 0 0 0 0 0 0 0 0
0 0 0 0 0 0 0 0 0 0 0 0 0 0 0 0 0 0 0 0 0 0 0 0 0 0 0 0 0 0 0 -0 0 0 0 0 0 0 0 0 0 0 0
0 0 0 0 0 0 0 0 0 0 0 0 0 0 0 0 0 0 0 0 0 0 0 0 0 0 0 0 0 0 -0 0 0 0 0 0 0 0 0 0 0 0 0
0 0 0 0 0 0 0 0 0 0 0 0 0 0 0 0 0 0 0 0 0 0 0 0 0 0 0 0 0 0 0 0 0 0 0 0 0 0 0 0 0 0 0
0 0 -0 -0 0 0 0 0 -0 -0 -0 -0 -0 0 0 0 0 0 0 0 0 0 0 0 0 0 0 0 0 0 0 0 0 0 0 0 0 0 0 0 0 0 0
0 -0 -0 -0 0 0 0 0 0 -0 0 -0 0 0 0 0 0 0 -0 0 0 0 0 0 0 0 0 -0 0 0 0 0 0 0 0 0 0 0 0 0 0 0 0
0 -0 -0 -0 0 0 0 0 0 -0 -0 0 -0 0 0 0 0 0 -0 0 0 0 0 0 0 0 -0 0 0 -0 0 0 0 0 0 0 0 0 0 0 0 0 0
0 -0 -0 -0 0 0 0 0 0 0 0 0 0 0 0 0 0 0 0 0 0 0 0 0 0 -0 -0 -0 0 0 0 0 0 0 0 0 0 0 0 0 0 0 0
0 0 -0 0 0 0 0 0 0 0 0 0 0 0 0 0 0 0 -0 -0 0 0 0 0 -0 -0 -0 0 0 0 0 -0 -0 0 0 0 0 0 0 0 0 0 0
0 0 0 0 0 0 0 0 0 0 0 0 0 0 0 0 0 0 0 0 0 0 0 0 0 -0 -0 -0 0 0 0 -0 -0 -0 -0 -0 0 0 0 0 0 0 -0
0 0 0 0 0 0 0 0 0 0 0 0 0 0 0 0 0 0 0 0 0 0 -0 -0 0 -0 -0 0 0 -0 -0 -0 0 -0 -0 -0 -0 -0 0 0 0 0 -0
0 0 0 0 0 0 0 0 0 0 0 0 0 0 0 0 0 0 0 -0 0 -0 0 -0 -0 -0 0 0 -0 -0 -0 -0 -0 -0 -0 -0 -0 -0 -0 0 0 0 0
0 0 0 0 0 0 0 0 0 0 0 0 0 0 0 0 0 0 0 0 0 0 0 -0 0 0 0 0 0 0 0 0 0 -0 -0 -0 -0 -0 -0 -0 0 0 0
0 0 0 0 0 0 -0 0 0 0 0 0 0 0 0 0 0 0 0 0 0 0 0 0 0 0 0 0 0 0 0 0 0 0 0 0 0 -0 0 0 0 0 0
0 0 0 0 0 0 0 0 0 0 0 0 0 0 0 0 0 0 0 0 0 0 0 0 0 0 0 0 0 0 0 0 0 0 0 0 0 0 0 0 0 -0 0
0 0 0 0 0 0 0 0 0 0 0 0 0 0 0 0 0 0 0 0 0 0 0 -0 0 0 0 0 0 0 0 0 0 0 0 0 0 0 0 0 0 0 0
0 0 0 0 0 0 0 0 0 0 0 0 0 0 0 0 0 0 0 0 0 0 -0 -0 -0 0 0 0 0 0 0 0 0 0 0 0 0 0 0 0 -0 0 0
-0 -0 -0 0 0 0 0 0 0 0 0 0 0 0 0 0 0 0 0 0 0 -0 0 -0 -0 -0 0 0 0 0 0 0 0 0 0 0 0 0 0 0 0 0 0
-0 -0 0 0 0 0 0 0 -0 0 0 0 0 0 0 0 0 0 0 0 0 0 0 -0 0 0 0 0 0 0 0 0 0 0 0 0 0 0 0 0 0 0 0
-0 -0 -0 0 0 0 0 0 -0 -0 -0 -0 -0 0 0 0 0 0 -0 -0 -0 0 -0 0 -0 -0 0 0 0 0 0 0 0 0 0 0 0 0 0 0 0 0 0
Wind_Speed_500mb
32 31 34 40 37 22 21 18 16 21 23 22 15 15 20 35 41 46 40 39 33 32 36 38 36 33 30 25 22 16 15 15 17 18 17 15 14 12 8 7 6 5 5
42 47 46 43 43 42 37 29 33 26 17 26 29 24 29 33 32 32 39 49 58 59 52 46 42 35 31 18 28 23 16 14 15 16 16 16 15 13 12 10 8 9 9
52 59 54 45 33 37 38 42 45 46 44 33 30 31 29 37 38 35 39 37 45 57 63 64 49 41 43 40 36 30 29 23 18 18 19 19 17 15 12 10 9 10 11
52 41 34 31 26 30 36 38 38 44 41 35 44 50 47 32 39 44 46 46 46 38 53 58 55 53 41 37 43 36 33 30 22 23 20 18 16 13 10 10 11 13 16
34 33 33 26 26 27 27 26 29 37 41 40 44 42 55 48 27 31 49 47 38 39 38 59 55 58 41 40 40 46 43 30 21 23 19 19 15 12 10 10 12 15 18
37 38 36 32 28 26 31 30 28 25 29 33 38 41 52 56 52 51 44 47 42 39 36 35 50 68 53 41 46 56 42 32 25 26 22 19 15 12 11 14 16 19 20
36 34 35 36 33 31 32 34 32 32 31 28 37 38 41 44 50 56 42 44 35 39 35 35 28 31 32 40 48 43 33 25 27 31 26 20 17 15 15 18 18 19 21
42 37 36 38 35 28 24 25 32 38 34 26 28 35 37 37 30 41 43 40 42 42 36 35 29 32 31 38 56 31 9 24 33 31 24 19 19 17 18 20 22 21 21
38 41 36 39 40 25 24 20 19 22 26 21 22 27 13 9 16 11 36 39 42 41 34 32 35 33 30 34 48 29 30 34 32 26 20 17 16 19 22 23 26 24 21
37 41 33 39 40 39 27 20 16 15 19 19 16 17 26 35 24 13 7 27 35 34 39 25 37 29 32 39 28 34 28 27 25 25 21 18 20 22 24 25 25 22 17
36 37 38 38 40 39 28 18 15 14 17 19 16 14 18 19 21 27 22 12 27 29 27 33 30 32 40 34 28 25 25 28 29 29 26 24 25 25 27 25 23 17 14
27 30 38 39 36 38 34 18 12 12 12 11 11 14 13 6 11 19 16 10 16 21 23 29 34 45 39 34 35 27 32 29 27 26 27 29 31 30 29 23 17 15 11
23 25 35 35 35 31 32 34 23 22 14 2 7 3 6 6 3 11 15 19 41 31 23 33 9 16 29 20 31 30 23 19 21 23 30 31 32 30 26 18 17 15 13
18 23 26 27 28 31 33 31 27 26 24 19 16 17 10 10 8 19 30 30 38 36 36 31 27 28 22 16 16 15 14 17 16 15 15 16 16 16 14 16 16 14 12
24 19 19 26 22 26 28 31 34 33 26 26 24 33 30 28 29 36 30 24 42 43 24 28 27 30 24 13 6 6 5 7 6 7 7 6 6 6 9 13 12 11 13
18 19 21 22 21 25 28 27 31 28 31 30 27 34 35 31 35 30 23 30 27 32 36 30 29 25 20 11 8 4 13 15 8 7 5 7 3 9 12 13 14 15 12
14 15 18 20 23 23 24 24 28 25 28 30 25 27 27 28 31 31 36 24 29 32 42 31 17 18 13 8 4 6 8 10 4 3 7 11 7 4 9 11 12 13 12
10 15 13 13 16 22 24 24 26 19 21 21 16 14 21 21 32 33 28 33 24 25 23 31 21 21 17 11 8 4 3 12 7 7 9 7 8 5 6 9 10 11 11
29 29 6 6 9 13 15 20 23 26 24 19 15 10 14 17 21 27 30 30 26 26 21 12 18 15 14 11 8 3 3 6 11 13 14 14 11 8 8 15 16 17 21
25 26 21 16 8 16 11 13 17 20 24 35 27 22 28 28 23 20 18 22 18 21 18 15 10 11 7 4 3 4 7 9 8 12 17 20 19 16 15 14 20 24 31
15 17 17 14 16 10 12 15 19 21 18 20 28 31 30 29 29 29 29 21 13 14 12 13 11 18 10 11 12 7 5 11 12 17 12 14 14 18 24 27 21 34 26
10 9 9 20 14 13 9 8 11 18 19 13 17 21 19 16 15 16 17 16 16 14 15 9 8 9 7 7 6 4 8 12 10 9 15 15 14 20 21 22 16 17 18
7 6 3 8 15 10 10 12 12 14 15 14 15 8 9 10 10 9 6 7 7 8 7 12 6 2 1 1 6 10 10 6 10 10 19 18 18 16 10 14 12 9 15
10 5 1 3 9 11 4 7 5 7 6 5 5 1 6 5 8 5 4 2 3 2 1 4 9 7 5 10 13 9 3 5 11 13 5 18 16 16 10 13 11 10 14
9 7 7 8 14 16 12 8 7 1 5 4 3 9 10 10 15 12 11 13 12 9 8 6 6 4 3 7 12 3 7 13 11 2 4 8 10 16 14 11 12 11 10
10 10 16 14 17 20 19 13 14 13 7 6 7 5 8 11 19 15 13 13 11 10 8 6 4 9 11 14 11 2 8 16 17 17 16 20 25 18 9 16 11 8 8
Wind_Direction_500mb
308 300 287 282 285 283 279 263 274 248 259 263 288 296 277 267 266 259 259 253 249 248 258 264 276 263 240 224 217 216 221 220 229 228 228 213 201 199 200 205 234 255 260
309 311 300 292 276 281 267 269 264 243 253 255 265 280 287 287 279 272 263 261 257 257 256 260 259 246 237 233 242 218 214 230 220 219 218 211 192 197 204 222 249 265 275
316 311 308 309 266 280 290 268 268 276 268 251 258 264 286 269 261 267 273 273 257 249 247 252 239 240 235 250 212 250 236 216 229 230 220 214 211 212 222 238 254 271 280
321 339 325 316 288 279 270 275 265 277 268 267 265 265 255 284 262 270 276 274 275 274 246 237 231 230 243 240 233 242 217 211 220 227 218 214 212 212 219 235 255 271 282
358 351 352 337 316 288 288 310 291 280 275 271 269 259 257 273 263 266 265 267 273 271 259 238 236 230 249 228 229 224 212 195 213 219 214 213 213 210 229 258 273 287 288
352 347 344 338 326 299 293 302 302 295 286 276 274 268 264 261 260 257 275 255 257 271 263 256 240 237 244 233 230 202 193 195 207 209 205 211 223 235 257 269 282 285 289
350 350 345 344 330 305 294 294 293 298 290 282 274 271 270 269 263 258 267 240 255 261 260 261 234 230 232 222 211 179 162 189 197 199 201 211 232 248 269 280 286 284 285
358 355 343 348 340 331 319 285 281 289 281 287 277 281 289 283 277 260 240 244 247 257 252 251 237 232 227 223 203 185 175 186 188 196 204 208 231 259 276 288 294 297 298
4 0 2 4 4 339 332 317 298 287 289 291 268 268 268 260 327 292 235 239 241 243 249 246 230 216 224 220 192 198 181 180 185 194 206 225 246 268 284 294 295 299 297
3 8 3 1 360 348 330 301 300 291 301 295 276 274 267 266 276 294 266 235 233 241 241 242 233 231 214 179 171 181 189 190 190 207 230 246 259 275 286 291 292 294 287
358 357 360 2 1 357 353 330 288 303 288 283 286 292 279 267 254 240 282 244 232 238 218 213 210 188 181 178 196 185 203 211 207 222 239 254 265 275 282 290 288 280 276
348 352 3 4 4 6 9 14 4 328 309 295 289 312 296 241 212 212 233 231 200 151 171 193 179 172 179 198 186 197 207 216 234 247 258 266 271 275 280 280 260 253 240
342 2 0 8 15 25 42 36 38 36 18 6 51 48 160 157 141 189 155 142 141 126 130 144 93 177 156 174 190 205 207 220 243 259 268 272 272 265 267 243 233 222 231
344 4 355 15 30 37 39 42 31 37 58 69 68 62 40 87 123 146 151 142 122 112 128 125 136 154 138 144 155 170 219 238 248 262 269 277 268 257 235 216 208 218 235
353 29 10 20 33 30 39 44 39 51 59 65 70 67 77 102 86 109 106 142 141 133 136 151 142 140 146 165 171 218 162 151 125 88 40 329 275 229 211 218 229 244 247
19 31 10 25 43 41 33 30 36 44 56 59 76 67 86 82 80 92 89 122 123 129 137 131 138 144 151 141 119 61 126 130 116 67 7 8 318 235 238 246 240 234 234
77 37 29 52 42 31 26 33 37 49 55 65 66 72 69 57 87 78 113 101 101 121 131 138 144 155 163 164 155 138 150 161 190 211 302 307 323 261 235 233 228 220 217
62 39 19 36 29 22 32 50 45 49 52 60 56 70 79 96 87 93 104 100 102 143 135 135 120 141 167 168 133 115 146 216 240 267 299 290 283 250 226 221 219 215 222
28 19 305 64 72 13 26 59 59 70 57 57 61 107 85 87 103 100 110 116 115 126 134 132 139 132 126 130 115 74 248 257 262 253 252 256 248 242 238 238 238 244 245
27 33 60 42 21 351 108 82 67 63 61 61 69 87 94 90 87 94 99 125 111 126 140 134 157 172 160 153 213 309 253 265 248 245 263 255 244 252 259 252 251 261 254
14 39 33 21 1 83 118 99 84 85 76 68 71 82 92 86 83 89 90 100 127 130 115 125 103 166 184 195 213 227 288 288 279 242 269 242 290 272 261 238 258 281 261
336 30 34 21 44 79 113 128 78 98 96 81 69 95 78 61 81 84 83 79 86 95 91 121 149 159 191 223 248 257 303 301 314 218 260 274 280 293 278 272 266 278 288
343 124 53 355 16 46 81 103 114 97 91 78 78 80 52 33 44 46 98 73 69 76 73 61 43 14 141 190 294 311 309 318 329 307 277 285 297 308 306 259 285 257 268
350 209 111 349 336 358 29 122 110 132 122 112 104 338 354 332 358 348 342 131 71 37 88 1 13 21 344 344 302 297 229 307 9 0 259 262 300 297 313 277 274 275 286
286 303 263 294 291 312 300 253 187 205 355 256 279 262 276 309 329 314 285 274 286 285 296 299 317 305 318 356 24 360 250 304 295 351 248 273 302 317 313 276 292 290 285
292 271 280 263 262 291 306 255 233 264 298 305 335 235 258 308 348 336 319 307 289 276 258 165 224 290 288 276 277 313 346 356 342 289 284 320 304 295 290 245 243 262 268
Wind_Speed_850mb
32 31 34 40 37 22 21 18 16 21 23 22 15 15 20 35 41 46 40 39 33 32 36 38 36 33 30 25 22 16 15 15 17 18 17 15 14 12 8 7 6 5 5
42 47 46 43 43 42 37 29 33 26 17 26 29 24 29 33 32 32 39 49 58 59 52 46 42 35 31 18 28 23 16 14 15 16 16 16 15 13 12 10 8 9 9
52 59 54 45 33 37 38 42 45 46 44 33 30 31 29 37 38 35 39 37 45 57 63 64 49 41 43 40 36 30 29 23 18 18 19 19 17 15 12 10 9 10 11
52 41 34 31 26 30 36 38 38 44 41 35 44 50 47 32 39 44 46 46 46 38 53 58 55 53 41 37 43 36 33 30 22 23 20 18 16 13 10 10 11 13 16
34 33 33 26 26 27 27 26 29 37 41 40 44 42 55 48 27 31 49 47 38 39 38 59 55 58 41 40 40 46 43 30 21 23 19 19 15 12 10 10 12 15 18
37 38 36 32 28 26 31 30 28 25 29 33 38 41 52 56 52 51 44 47 42 39 36 35 50 68 53 41 46 56 42 32 25 26 22 19 15 12 11 14 16 19 20
36 34 35 36 33 31 32 34 32 32 31 28 37 38 41 44 50 56 42 44 35 39 35 35 28 31 32 40 48 43 33 25 27 31 26 20 17 15 15 18 18 19 21
42 37 36 38 35 28 24 25 32 38 34 26 28 35 37 37 30 41 43 40 42 42 36 35 29 32 31 38 56 31 9 24 33 31 24 19 19 17 18 20 22 21 21
38 41 36 39 40 25 24 20 19 22 26 21 22 27 13 9 16 11 36 39 42 41 34 32 35 33 30 34 48 29 30 34 32 26 20 17 16 19 22 23 26 24 21
37 41 33 39 40 39 27 20 16 15 19 19 16 17 26 35 24 13 7 27 35 34 39 25 37 29 32 39 28 34 28 27 25 25 21 18 20 22 24 25 25 22 17
36 37 38 38 40 39 28 18 15 14 17 19 16 14 18 19 21 27 22 12 27 29 27 33 30 32 40 34 28 25 25 28 29 29 26 24 25 25 27 25 23 17 14
27 30 38 39 36 38 34 18 12 12 12 11 11 14 13 6 11 19 16 10 16 21 23 29 34 45 39 34 35 27 32 29 27 26 27 29 31 30 29 23 17 15 11
23 25 35 35 35 31 32 34 23 22 14 2 7 3 6 6 3 11 15 19 41 31 23 33 9 16 29 20 31 30 23 19 21 23 30 31 32 30 26 18 17 15 13
18 23 26 27 28 31 33 31 27 26 24 19 16 17 10 10 8 19 30 30 38 36 36 31 27 28 22 16 16 15 14 17 16 15 15 16 16 16 14 16 16 14 12
24 19 19 26 22 26 28 31 34 33 26 26 24 33 30 28 29 36 30 24 42 43 24 28 27 30 24 13 6 6 5 7 6 7 7 6 6 6 9 13 12 11 13
18 19 21 22 21 25 28 27 31 28 31 30 27 34 35 31 35 30 23 30 27 32 36 30 29 25 20 11 8 4 13 15 8 7 5 7 3 9 12 13 14 15 12
14 15 18 20 23 23 24 24 28 25 28 30 25 27 27 28 31 31 36 24 29 32 42 31 17 18 13 8 4 6 8 10 4 3 7 11 7 4 9 11 12 13 12
10 15 13 13 16 22 24 24 26 19 21 21 16 14 21 21 32 33 28 33 24 25 23 31 21 21 17 11 8 4 3 12 7 7 9 7 8 5 6 9 10 11 11
29 29 6 6 9 13 15 20 23 26 24 19 15 10 14 17 21 27 30 30 26 26 21 12 18 15 14 11 8 3 3 6 11 13 14 14 11 8 8 15 16 17 21
25 26 21 16 8 16 11 13 17 20 24 35 27 22 28 28 23 20 18 22 18 21 18 15 10 11 7 4 3 4 7 9 8 12 17 20 19 16 15 14 20 24 31
15 17 17 14 16 10 12 15 19 21 18 20 28 31 30 29 29 29 29 21 13 14 12 13 11 18 10 11 12 7 5 11 12 17 12 14 14 18 24 27 21 34 26
10 9 9 20 14 13 9 8 11 18 19 13 17 21 19 16 15 16 17 16 16 14 15 9 8 9 7 7 6 4 8 12 10 9 15 15 14 20 21 22 16 17 18
7 6 3 8 15 10 10 12 12 14 15 14 15 8 9 10 10 9 6 7 7 8 7 12 6 2 1 1 6 10 10 6 10 10 19 18 18 16 10 14 12 9 15
10 5 1 3 9 11 4 7 5 7 6 5 5 1 6 5 8 5 4 2 3 2 1 4 9 7 5 10 13 9 3 5 11 13 5 18 16 16 10 13 11 10 14
9 7 7 8 14 16 12 8 7 1 5 4 3 9 10 10 15 12 11 13 12 9 8 6 6 4 3 7 12 3 7 13 11 2 4 8 10 16 14 11 12 11 10
10 10 16 14 17 20 19 13 14 13 7 6 7 5 8 11 19 15 13 13 11 10 8 6 4 9 11 14 11 2 8 16 17 17 16 20 25 18 9 16 11 8 8
Wind_Direction_850mb
308 300 287 282 285 283 279 263 274 248 259 263 288 296 277 267 266 259 259 253 249 248 258 264 276 263 240 224 217 216 221 220 229 228 228 213 201 199 200 205 234 255 260
309 311 300 292 276 281 267 269 264 243 253 255 265 280 287 287 279 272 263 261 257 257 256 260 259 246 237 233 242 218 214 230 220 219 218 211 192 197 204 222 249 265 275
316 311 308 309 266 280 290 268 268 276 268 251 258 264 286 269 261 267 273 273 257 249 247 252 239 240 235 250 212 250 236 216 229 230 220 214 211 212 222 238 254 271 280
321 339 325 316 288 279 270 275 265 277 268 267 265 265 255 284 262 270 276 274 275 274 246 237 231 230 243 240 233 242 217 211 220 227 218 214 212 212 219 235 255 271 282
358 351 352 337 316 288 288 310 291 280 275 271 269 259 257 273 263 266 265 267 273 271 259 238 236 230 249 228 229 224 212 195 213 219 214 213 213 210 229 258 273 287 288
352 347 344 338 326 299 293 302 302 295 286 276 274 268 264 261 260 257 275 255 257 271 263 256 240 237 244 233 230 202 193 195 207 209 205 211 223 235 257 269 282 285 289
350 350 345 344 330 305 294 294 293 298 290 282 274 271 270 269 263 258 267 240 255 261 260 261 234 230 232 222 211 179 162 189 197 199 201 211 232 248 269 280 286 284 285
358 355 343 348 340 331 319 285 281 289 281 287 277 281 289 283 277 260 240 244 247 257 252 251 237 232 227 223 203 185 175 186 188 196 204 208 231 259 276 288 294 297 298
4 0 2 4 4 339 332 317 298 287 289 291 268 268 268 260 327 292 235 239 241 243 249 246 230 216 224 220 192 198 181 180 185 194 206 225 246 268 284 294 295 299 297
3 8 3 1 360 348 330 301 300 291 301 295 276 274 267 266 276 294 266 235 233 241 241 242 233 231 214 179 171 181 189 190 190 207 230 246 259 275 286 291 292 294 287
358 357 360 2 1 357 353 330 288 303 288 283 286 292 279 267 254 240 282 244 232 238 218 213 210 188 181 178 196 185 203 211 207 222 239 254 265 275 282 290 288 280 276
348 352 3 4 4 6 9 14 4 328 309 295 289 312 296 241 212 212 233 231 200 151 171 193 179 172 179 198 186 197 207 216 234 247 258 266 271 275 280 280 260 253 240
342 2 0 8 15 25 42 36 38 36 18 6 51 48 160 157 141 189 155 142 141 126 130 144 93 177 156 174 190 205 207 220 243 259 268 272 272 265 267 243 233 222 231
344 4 355 15 30 37 39 42 31 37 58 69 68 62 40 87 123 146 151 142 122 112 128 125 136 154 138 144 155 170 219 238 248 262 269 277 268 257 235 216 208 218 235
353 29 10 20 33 30 39 44 39 51 59 65 70 67 77 102 86 109 106 142 141 133 136 151 142 140 146 165 171 218 162 151 125 88 40 329 275 229 211 218 229 244 247
19 31 10 25 43 41 33 30 36 44 56 59 76 67 86 82 80 92 89 122 123 129 137 131 138 144 151 141 119 61 126 130 116 67 7 8 318 235 238 246 240 234 234
77 37 29 52 42 31 26 33 37 49 55 65 66 72 69 57 87 78 113 101 101 121 131 138 144 155 163 164 155 138 150 161 190 211 302 307 323 261 235 233 228 220 217
62 39 19 36 29 22 32 50 45 49 52 60 56 70 79 96 87 93 104 100 102 143 135 135 120 141 167 168 133 115 146 216 240 267 299 290 283 250 226 221 219 215 222
28 19 305 64 72 13 26 59 59 70 57 57 61 107 85 87 103 100 110 116 115 126 134 132 139 132 126 130 115 74 248 257 262 253 252 256 248 242 238 238 238 244 245
27 33 60 42 21 351 108 82 67 63 61 61 69 87 94 90 87 94 99 125 111 126 140 134 157 172 160 153 213 309 253 265 248 245 263 255 244 252 259 252 251 261 254
14 39 33 21 1 83 118 99 84 85 76 68 71 82 92 86 83 89 90 100 127 130 115 125 103 166 184 195 213 227 288 288 279 242 269 242 290 272 261 238 258 281 261
336 30 34 21 44 79 113 128 78 98 96 81 69 95 78 61 81 84 83 79 86 95 91 121 149 159 191 223 248 257 303 301 314 218 260 274 280 293 278 272 266 278 288
343 124 53 355 16 46 81 103 114 97 91 78 78 80 52 33 44 46 98 73 69 76 73 61 43 14 141 190 294 311 309 318 329 307 277 285 297 308 306 259 285 257 268
350 209 111 349 336 358 29 122 110 132 122 112 104 338 354 332 358 348 342 131 71 37 88 1 13 21 344 344 302 297 229 307 9 0 259 262 300 297 313 277 274 275 286
286 303 263 294 291 312 300 253 187 205 355 256 279 262 276 309 329 314 285 274 286 285 296 299 317 305 318 356 24 360 250 304 295 351 248 273 302 317 313 276 292 290 285
292 271 280 263 262 291 306 255 233 264 298 305 335 235 258 308 348 336 319 307 289 276 258 165 224 290 288 276 277 313 346 356 342 289 284 320 304 295 290 245 243 262 268